Satellite: INMARSAT 3-F1
Catalog number: 23839
Epoch time:      103015.66256007
Element set:     850 
Inclination:        0.0480 deg
RA of node:        13.1970 deg
Eccentricity:    0.0005506
Arg of perigee:   300.1486 deg
Mean anomaly:     103.7184 deg
Mean motion:    1.00273536 rev/day
Decay rate:    3.4999E-007 rev/day^2
Epoch rev:            2487
Checksum:              384

Satellite: ASTRA 1F
Catalog number: 23842
Epoch time:      103013.00000000
Element set:     556 
Inclination:        0.0122 deg
RA of node:       319.8851 deg
Eccentricity:    0.0002995
Arg of perigee:    65.1991 deg
Mean anomaly:     106.1837 deg
Mean motion:    1.00273184 rev/day
Decay rate:    1.3899E-006 rev/day^2
Epoch rev:            2475
Checksum:              254

Satellite: JAS 2
Catalog number: 24278
Epoch time:      103015.44755404
Element set:     553 
Inclination:       98.5274 deg
RA of node:       171.3064 deg
Eccentricity:    0.0350284
Arg of perigee:   305.0640 deg
Mean anomaly:      51.8105 deg
Mean motion:   13.52869265 rev/day
Decay rate:    3.6000E-007 rev/day^2
Epoch rev:           31669
Checksum:              292

Satellite: UNAMSAT
Catalog number: 24305
Epoch time:      103014.88409927
Element set:     654 
Inclination:       82.9284 deg
RA of node:       288.4251 deg
Eccentricity:    0.0029788
Arg of perigee:   304.0959 deg
Mean anomaly:      55.7360 deg
Mean motion:   13.73447983 rev/day
Decay rate:    2.0499E-006 rev/day^2
Epoch rev:           31872
Checksum:              345

Satellite: INMARSAT 3-F2
Catalog number: 24307
Epoch time:      103015.26291836
Element set:     71 
Inclination:        0.0296 deg
RA of node:        18.6258 deg
Eccentricity:    0.0003303
Arg of perigee:   295.1229 deg
Mean anomaly:     239.6493 deg
Mean motion:    1.00272002 rev/day
Decay rate:   -1.0400E-006 rev/day^2
Epoch rev:            2327
Checksum:              247

Satellite: HOT BIRD 2
Catalog number: 24665
Epoch time:      103013.80550721
Element set:     339 
Inclination:        0.0284 deg
RA of node:       278.7326 deg
Eccentricity:    0.0008090
Arg of perigee:    44.5257 deg
Mean anomaly:      92.5403 deg
Mean motion:    1.00273403 rev/day
Decay rate:    1.0700E-006 rev/day^2
Epoch rev:            2290
Checksum:              247

Satellite: INMARSAT 3-F3
Catalog number: 24674
Epoch time:      103015.36610176
Element set:     969 
Inclination:        0.0616 deg
RA of node:       309.6940 deg
Eccentricity:    0.0004199
Arg of perigee:   346.1003 deg
Mean anomaly:     128.5109 deg
Mean motion:    1.00270259 rev/day
Decay rate:    5.9000E-007 rev/day^2
Epoch rev:            2224
Checksum:              269

Satellite: GOES 10
Catalog number: 24786
Epoch time:      103016.34654569
Element set:     505 
Inclination:        0.0588 deg
RA of node:       111.3788 deg
Eccentricity:    0.0003160
Arg of perigee:   208.9721 deg
Mean anomaly:     144.6281 deg
Mean motion:    1.00280693 rev/day
Decay rate:    1.0500E-006 rev/day^2
Epoch rev:            2100
Checksum:              258

Satellite: INMARSAT 3-F4
Catalog number: 24819
Epoch time:      103013.17016638
Element set:     865 
Inclination:        0.0686 deg
RA of node:       297.8154 deg
Eccentricity:    0.0003903
Arg of perigee:   358.0496 deg
Mean anomaly:     183.5915 deg
Mean motion:    1.00271479 rev/day
Decay rate:   -2.6600E-006 rev/day^2
Epoch rev:            2064
Checksum:              408

Satellite: FENGYUN 2A
Catalog number: 24834
Epoch time:      103008.98957809
Element set:     942 
Inclination:        2.4721 deg
RA of node:        88.7751 deg
Eccentricity:    0.0002867
Arg of perigee:   256.9049 deg
Mean anomaly:     204.9633 deg
Mean motion:    1.00265824 rev/day
Decay rate:   -1.8800E-006 rev/day^2
Epoch rev:            2043
Checksum:              311

Satellite: HOT BIRD 3
Catalog number: 24931
Epoch time:      103013.80550721
Element set:     420 
Inclination:        0.0673 deg
RA of node:       233.2523 deg
Eccentricity:    0.0010443
Arg of perigee:   100.7649 deg
Mean anomaly:      81.7511 deg
Mean motion:    1.00274844 rev/day
Decay rate:    1.0700E-006 rev/day^2
Epoch rev:            1972
Checksum:              232

Satellite: METEOSAT 7
Catalog number: 24932
Epoch time:      103014.88154522
Element set:     227 
Inclination:        0.1461 deg
RA of node:        49.6528 deg
Eccentricity:    0.0001132
Arg of perigee:   224.3437 deg
Mean anomaly:     157.2137 deg
Mean motion:    1.00274030 rev/day
Decay rate:    1.5999E-007 rev/day^2
Epoch rev:            1967
Checksum:              274

Satellite: ASTRA 1G
Catalog number: 25071
Epoch time:      103013.00000000
Element set:     387 
Inclination:        0.0122 deg
RA of node:       319.8851 deg
Eccentricity:    0.0002995
Arg of perigee:    65.1991 deg
Mean anomaly:     106.1633 deg
Mean motion:    1.00273184 rev/day
Decay rate:    1.3899E-006 rev/day^2
Epoch rev:            1877
Checksum:              251

Satellite: INMARSAT 3-F5
Catalog number: 25153
Epoch time:      103015.13392362
Element set:     832 
Inclination:        0.4468 deg
RA of node:       357.8654 deg
Eccentricity:    0.0003784
Arg of perigee:   313.2227 deg
Mean anomaly:     236.2746 deg
Mean motion:    1.00276015 rev/day
Decay rate:    1.6100E-006 rev/day^2
Epoch rev:            1815
Checksum:              268

Satellite: HOT BIRD 4
Catalog number: 25237
Epoch time:      103013.80550721
Element set:     325 
Inclination:        0.0242 deg
RA of node:       116.4838 deg
Eccentricity:    0.0007929
Arg of perigee:   193.6371 deg
Mean anomaly:     105.7449 deg
Mean motion:    1.00276095 rev/day
Decay rate:    1.0700E-006 rev/day^2
Epoch rev:            1818
Checksum:              265

Satellite: NOAA 15
Catalog number: 25338
Epoch time:      103016.01737769
Element set:     970 
Inclination:       98.5514 deg
RA of node:        39.0769 deg
Eccentricity:    0.0011324
Arg of perigee:    57.2826 deg
Mean anomaly:     302.9443 deg
Mean motion:   14.24228192 rev/day
Decay rate:    2.5199E-006 rev/day^2
Epoch rev:           24302
Checksum:              311

Satellite: RESURS O1-N4
Catalog number: 25394
Epoch time:      103015.55453539
Element set:     424 
Inclination:       98.6364 deg
RA of node:        94.1013 deg
Eccentricity:    0.0001188
Arg of perigee:   172.5340 deg
Mean anomaly:     187.5858 deg
Mean motion:   14.23864127 rev/day
Decay rate:    2.0400E-006 rev/day^2
Epoch rev:           23469
Checksum:              306

Satellite: TMSAT
Catalog number: 25396
Epoch time:      103016.42978806
Element set:     814 
Inclination:       98.6319 deg
RA of node:        94.1746 deg
Eccentricity:    0.0002082
Arg of perigee:   210.1678 deg
Mean anomaly:     149.9382 deg
Mean motion:   14.23499736 rev/day
Decay rate:   -4.3000E-007 rev/day^2
Epoch rev:           23481
Checksum:              322

Satellite: TECHSAT 1B
Catalog number: 25397
Epoch time:      103014.96211203
Element set:     94 
Inclination:       98.6280 deg
RA of node:        91.6630 deg
Eccentricity:    0.0000483
Arg of perigee:   214.0106 deg
Mean anomaly:     146.1041 deg
Mean motion:   14.22950882 rev/day
Decay rate:    1.0200E-006 rev/day^2
Epoch rev:           23457
Checksum:              373

Satellite: ASTRA 2A
Catalog number: 25462
Epoch time:      103013.00000000
Element set:     528 
Inclination:        0.0385 deg
RA of node:       308.7109 deg
Eccentricity:    0.0004824
Arg of perigee:   280.8620 deg
Mean anomaly:     270.7162 deg
Mean motion:    1.00272094 rev/day
Decay rate:    1.6899E-006 rev/day^2
Epoch rev:            1607
Checksum:              243

Satellite: EUTELSAT W2
Catalog number: 25491
Epoch time:      103015.86810854
Element set:     564 
Inclination:        0.0572 deg
RA of node:       107.9262 deg
Eccentricity:    0.0003740
Arg of perigee:   184.8614 deg
Mean anomaly:     150.6403 deg
Mean motion:    1.00275257 rev/day
Decay rate:    1.2299E-006 rev/day^2
Epoch rev:            1571
Checksum:              274

Satellite: HOT BIRD 5
Catalog number: 25495
Epoch time:      103015.13542825
Element set:     492 
Inclination:        0.0349 deg
RA of node:       198.9702 deg
Eccentricity:    0.0009463
Arg of perigee:    93.1649 deg
Mean anomaly:     263.9846 deg
Mean motion:    1.00277875 rev/day
Decay rate:    1.7500E-006 rev/day^2
Epoch rev:            1567
Checksum:              312

Satellite: SEDSAT 1
Catalog number: 25509
Epoch time:      103015.24212428
Element set:     757 
Inclination:       31.4340 deg
RA of node:       347.0096 deg
Eccentricity:    0.0357876
Arg of perigee:     3.1261 deg
Mean anomaly:     357.1502 deg
Mean motion:   14.27372412 rev/day
Decay rate:    1.7180E-005 rev/day^2
Epoch rev:           22040
Checksum:              261

Satellite: PAN SAT
Catalog number: 25520
Epoch time:      103014.61741936
Element set:     630 
Inclination:       28.4586 deg
RA of node:        96.6203 deg
Eccentricity:    0.0005302
Arg of perigee:   334.1665 deg
Mean anomaly:      25.8684 deg
Mean motion:   15.13694513 rev/day
Decay rate:    4.0060E-005 rev/day^2
Epoch rev:           23228
Checksum:              277

Satellite: ISS (ZARYA)
Catalog number: 25544
Epoch time:      103016.53240156
Element set:     591 
Inclination:       51.6358 deg
RA of node:        62.0486 deg
Eccentricity:    0.0005566
Arg of perigee:    38.7223 deg
Mean anomaly:     113.3057 deg
Mean motion:   15.59206381 rev/day
Decay rate:    3.2717E-004 rev/day^2
Epoch rev:           23734
Checksum:              285

